Location: Artiguedieu
(43.5000°N, 0.5454°E)
Time: 08:35:11
(UTC+00:00)

Vanguard 1 Rocket - Pass Details

Date: 05 August 2021
Orbit: 650 x 4226 km, 34.3° (Epoch: 24 September)

Event Time Altitude Azimuth Distance (km) Brightness Sun altitude
Rises 14:15:55 0° 277° (W) 6,378 12.1 51.4°
Reaches altitude 10° 14:21:34 10° 268° (W) 4,698 11.8 50.5°
Maximum altitude 14:30:44 27° 217° (SW) 2,438 10.9 49.1°
Drops below altitude 10° 14:36:26 10° 160° (SSE) 2,820 10.1 48.2°
Sets 14:38:55 0° 147° (SSE) 3,492 10.4 47.8°
